Skip Page Navigation
NASA JPL Caltech
NASA Logo - Jet Propulsion Laboratory + View the NASA Portal
+ Center for Near-Earth Object Studies
JPL Home Earth Solar System Stars & Galaxies Technology
JPL Solar System Dynamics
BODIES ORBITS EPHEMERIDES TOOLS PHYSICAL DATA DISCOVERY FAQ SITE MAP
IMPORTANT: The SSD Announcement email list is now available. Major changes are coming in the near future, including possible hostname and/or URL changes. To be notified of such changes, subscribe to this email list.

Please visit this page for more details.


JPL Small-Body Database Browser
Search: [ help ]  
109283 (2001 QY119)
Classification: Main-belt Asteroid          SPK-ID: 2109283
Ephemeris | Orbit Diagram | Orbital Elements | Mission Design | Physical Parameters | Discovery Circumstances | Close-Approach Data ]

[ show orbit diagram ]
Orbital Elements at Epoch 2458600.5 (2019-Apr-27.0) TDB
Reference: JPL 9 (heliocentric ecliptic J2000)
 Element Value Uncertainty (1-sigma)   Units 
e .3166363489620364 4.5294e-08  
a 2.592432539742929 1.4431e-08 au
q 1.771574165428349 1.1545e-07 au
i 4.494798522647566 5.9344e-06 deg
node 107.9993538695963 9.8282e-05 deg
peri 227.0046383974145 9.9859e-05 deg
M 89.55013118198247 2.0947e-05 deg
tp 2458221.251956935288
(2018-Apr-12.75195694)
8.6237e-05 TDB
period 1524.613015092557
4.17
1.2731e-05
3.486e-08
d
yr
n .2361254931161301 1.9717e-09 deg/d
Q 3.413290914057509 1.9001e-08 au
  Orbit Determination Parameters
   # obs. used (total)      254  
   data-arc span      9159 days (25.08 yr)  
   first obs. used      1994-01-12  
   last obs. used      2019-02-09  
   planetary ephem.      DE431  
   SB-pert. ephem.      SB431-N16  
   condition code      0  
   norm. resid. RMS      .62795  
   source      ORB  
   producer      Otto Matic  
   solution date      2019-Jul-13 09:29:45  

Additional Information
 Earth MOID = .764455 au 
 Jupiter MOID = 1.98079 au 
 T_jup = 3.342 
[ show covariance matrix ]

Ephemeris | Orbit Diagram | Orbital Elements | Mission Design | Physical Parameters | Discovery Circumstances | Close-Approach Data ]

Physical Parameter Table
Parameter Symbol Value Units Sigma Reference Notes
absolute magnitude H 16.5   n/a MPO453552  

109283 (2001 QY119)          Discovered 2001-Aug-18 by LINEAR at Socorro
Reference: 20051019/Numbers.arcLast Updated: 2005-10-26

[ show close-approach data ]
Ephemeris | Orbit Diagram | Orbital Elements | Mission Design | Physical Parameters | Discovery Circumstances | Close-Approach Data ]
ABOUT SSD CREDITS/AWARDS PRIVACY/COPYRIGHT GLOSSARY LINKS
FirstGov 2019-Dec-15 23:53 UT
(server date/time)  
NASA Home Page
Site Manager:   Ryan S. Park
Webmaster  Alan B. Chamberlin